TimeMDT,TemperatureF,Dew PointF,Humidity,Sea Level PressureIn,VisibilityMPH,Wind Direction,Wind SpeedMPH,Gust SpeedMPH,PrecipitationIn,Events,Conditions,WindDirDegrees,DateUTC
12:53 AM,53.1,37.0,55,29.91,10.0,SW,6.9,-,N/A,,Mostly Cloudy,230,2012-10-16 06:53:00
1:53 AM,59.0,36.0,42,29.84,10.0,SSW,4.6,-,N/A,,Clear,210,2012-10-16 07:53:00
2:53 AM,61.0,35.1,38,29.82,10.0,South,15.0,-,N/A,,Clear,190,2012-10-16 08:53:00
3:53 AM,62.6,35.6,37,29.91,10.0,South,12.7,19.6,N/A,,Mostly Cloudy,190,2012-10-16 09:53:00
4:53 AM,62.1,35.1,37,29.79,10.0,SW,17.3,26.5,N/A,,Overcast,220,2012-10-16 10:53:00
6:53 AM,54.0,48.0,80,29.82,7.0,SSW,11.5,-,0.04,Rain,Light Rain,210,2012-10-16 12:53:00
7:53 AM,55.0,48.0,77,29.81,10.0,SSW,16.1,-,0.03,Rain,Light Rain,200,2012-10-16 13:53:00
8:53 AM,55.0,46.0,72,29.78,8.0,SSW,9.2,-,0.00,Rain,Light Rain,210,2012-10-16 14:53:00
9:53 AM,55.9,48.9,77,29.75,10.0,SSW,10.4,-,0.01,,Mostly Cloudy,200,2012-10-16 15:53:00
10:53 AM,59.0,46.9,64,29.68,10.0,SSW,17.3,23.0,N/A,,Mostly Cloudy,200,2012-10-16 16:53:00
11:53 AM,59.0,51.1,75,29.68,10.0,SW,17.3,24.2,0.02,,Mostly Cloudy,230,2012-10-16 17:53:00
12:53 PM,59.0,53.1,81,29.68,10.0,SW,31.1,41.4,0.00,,Mostly Cloudy,230,2012-10-16 18:53:00
1:30 PM,55.4,53.6,94,29.79,1.8,WSW,39.1,57.5,0.02,Rain,Heavy Rain,240,2012-10-16 19:30:00
1:33 PM,55.4,51.8,88,29.80,4.0,West,36.8,57.5,0.05,Rain-Thunderstorm,Thunderstorms and Rain,260,2012-10-16 19:33:00
1:50 PM,51.8,46.4,82,29.82,10.0,West,25.3,44.9,0.06,Rain,Light Rain,270,2012-10-16 19:50:00
1:53 PM,53.1,46.0,77,29.74,10.0,West,25.3,39.1,0.06,Rain,Light Rain,270,2012-10-16 19:53:00
2:53 PM,57.9,45.0,62,29.68,10.0,WSW,28.8,36.8,0.00,,Scattered Clouds,240,2012-10-16 20:53:00
3:53 PM,61.0,33.1,35,29.68,10.0,WSW,38.0,47.2,N/A,,Partly Cloudy,250,2012-10-16 21:53:00
4:53 PM,59.0,35.1,41,29.70,10.0,WSW,38.0,49.5,N/A,,Partly Cloudy,250,2012-10-16 22:53:00
5:53 PM,57.0,30.0,36,29.73,10.0,WSW,33.4,47.2,N/A,,Partly Cloudy,250,2012-10-16 23:53:00
6:53 PM,52.0,30.9,45,29.79,10.0,WSW,28.8,43.7,N/A,,Partly Cloudy,250,2012-10-17 00:53:00
7:53 PM,50.0,28.0,43,29.82,10.0,WSW,29.9,46.0,N/A,,Clear,250,2012-10-17 01:53:00
8:53 PM,46.9,28.9,50,29.88,10.0,West,23.0,33.4,N/A,,Clear,260,2012-10-17 02:53:00
9:53 PM,45.0,27.0,49,29.92,10.0,West,20.7,-,N/A,,Clear,260,2012-10-17 03:53:00
10:53 PM,44.1,24.1,45,29.95,10.0,West,21.9,27.6,N/A,,Clear,260,2012-10-17 04:53:00
11:53 PM,42.1,18.0,38,29.97,10.0,West,17.3,25.3,N/A,,Clear,260,2012-10-17 05:53:00